Flag for Austria Weather past 2 weeks in St. Pölten, Lower Austria, Austria

Now
41 °F

Passing clouds.


Feels Like: 36 °F
Forecast: 28 / 62 °F
Wind: 7 mph from West

Location: Tulln Airport


UV Index: 0 (Low)

Visibility: 15 mi


Pressure: 30.30 "Hg

Humidity: 70%

Dew point: 32 °F

Location of St. PöltenLocation

Historic Weather in St. Pölten

°F

St. Pölten temperature yesterday

Maximum temperature yesterday: 55 °F (at 3:50 PM)
Minimum temperature yesterday: 39 °F (at 10:50 PM)
Average temperature yesterday: 47 °F

Past Weeks' High & Low Weather Summary

 TemperatureHumidityPressure
High75 °F (Apr 8, 1:50 PM)100% (Apr 7, 5:50 AM)30.33 "Hg (Apr 7, 5:50 AM)
Low34 °F (Apr 11, 5:50 AM)31% (Apr 3, 4:50 PM)29.68 "Hg (Apr 3, 5:50 PM)
Average53 °F66%30.00 "Hg
* Reported Apr 2 7:50 AM — Apr 17 7:50 AM, St. Pölten, Weather by CustomWeather, © 2014

Note: Actual official high and low records may vary slightly from our data, if they occured in-between our weather recording intervals... More about our weather records

Advertising

Historic Weather Conditions — Data for Previous 24 hours

 ConditionsComfort  
Time TempWeatherWind HumidityBarometerVisibility
7:50 AM
Apr 17
41 °FPassing clouds.7 mph70%30.30 "Hg16 mi
6:50 AM34 °FPassing clouds.3 mph81%30.27 "Hg14 mi
5:50 AM34 °FPassing clouds.7 mph81%30.30 "Hg9 mi
10:50 PM
Apr 16
39 °FPassing clouds.5 mph70%30.33 "Hg9 mi
9:50 PM41 °FPassing clouds.3 mph66%30.33 "Hg9 mi
8:50 PM41 °FPassing clouds.7 mph70%30.33 "Hg12 mi
7:50 PM46 °FPartly sunny.16 mph57%30.30 "Hg19 mi
6:50 PM50 °FScattered clouds.10 mph40%30.27 "Hg22 mi
5:50 PM54 °FScattered clouds.13 mph35%30.24 "Hg25 mi
4:50 PM54 °FScattered clouds.12 mph41%30.24 "Hg22 mi
3:50 PM55 °FPartly sunny.14 mph41%30.24 "Hg22 mi
2:50 PM54 °FScattered clouds.9 mph51%30.24 "Hg19 mi
1:50 PM52 °FScattered clouds.10 mph54%30.24 "Hg12 mi
11:50 AM48 °FPartly sunny.10 mph62%30.27 "Hg12 mi
10:50 AM46 °FPartly sunny.10 mph66%30.27 "Hg12 mi
9:50 AM46 °FPartly sunny.9 mph66%30.27 "Hg11 mi
Weather by CustomWeather, © 2014

See weather overview